| time (UTC) | temp F | wind direction | speed MPH | gust MPH | rain 1hr in | rain 24hr in | rain mn in | humidity % | barometer mb |
| 20260505215405 | 51 | 356 | 7.0 | 11.0 | 0.00 | 0.00 | 0.20 | 91 | 1007.5 |
| 20260505214725 | 0 | 356 | 7.0 | 10.0 | 0.00 | 0.00 | 0.19 | ||
| 20260505213709 | 52 | 356 | 10.0 | 14.0 | 0.00 | 0.00 | 0.16 | 89 | 1007.4 |
| 20260505213030 | 52 | 355 | 9.0 | 6.0 | 0.00 | 0.00 | 0.15 | 88 | 1007.1 |
| 20260505211905 | 0 | 353 | 9.0 | 7.0 | 0.00 | 0.00 | 0.13 | ||
| 20260505211003 | 52 | 357 | 7.0 | 12.0 | 0.00 | 0.00 | 0.11 | 88 | 1006.9 |
| 20260505210332 | 53 | 355 | 7.0 | 13.0 | 0.00 | 0.00 | 0.09 | 86 | 1006.9 |
| 20260505205644 | 54 | 355 | 8.0 | 18.0 | 0.00 | 0.00 | 0.07 | 83 | 1006.7 |
| 20260505205003 | 54 | 355 | 9.0 | 18.0 | 0.00 | 0.00 | 0.06 | 81 | 1006.4 |
| 20260505204324 | 0 | 356 | 8.0 | 7.0 | 0.00 | 0.00 | 0.05 | ||
| 20260505203535 | 54 | 355 | 6.0 | 13.0 | 0.00 | 0.00 | 0.05 | 80 | 1006.0 |
| 20260505202855 | 54 | 354 | 8.0 | 14.0 | 0.00 | 0.00 | 0.05 | 79 | 1006.0 |
| 20260505202216 | 0 | 352 | 9.0 | 9.0 | 0.00 | 0.00 | 0.05 | ||
| 20260505201319 | 0 | 353 | 10.0 | 10.0 | 0.00 | 0.00 | 0.05 | ||
| 20260505200416 | 54 | 356 | 11.0 | 17.0 | 0.00 | 0.00 | 0.05 | 79 | 1006.1 |
| 20260505195736 | 55 | 352 | 10.0 | 16.0 | 0.00 | 0.00 | 0.05 | 75 | 1006.2 |
| 20260505195057 | 56 | 354 | 9.0 | 15.0 | 0.00 | 0.00 | 0.05 | 73 | 1006.0 |
| 20260505194417 | 0 | 355 | 9.0 | 6.0 | 0.00 | 0.00 | 0.05 | ||
| 20260505193627 | 57 | 352 | 12.0 | 21.0 | 0.00 | 0.00 | 0.05 | 71 | 1005.7 |
| 20260505192950 | 0 | 354 | 12.0 | 9.0 | 0.00 | 0.00 | 0.05 | ||
| 20260505192158 | 0 | 350 | 11.0 | 13.0 | 0.00 | 0.00 | 0.05 | ||
| 20260505191410 | 56 | 354 | 10.0 | 12.0 | 0.00 | 0.00 | 0.05 | 74 | 1005.7 |
| 20260505190505 | 56 | 354 | 9.0 | 16.0 | 0.00 | 0.00 | 0.05 | 73 | 1005.8 |
| 20260505185825 | 56 | 356 | 9.0 | 17.0 | 0.00 | 0.00 | 0.05 | 73 | 1005.9 |
| 20260505185145 | 56 | 357 | 9.0 | 18.0 | 0.00 | 0.00 | 0.05 | 73 | 1005.9 |
| 20260505184505 | 56 | 355 | 9.0 | 18.0 | 0.00 | 0.00 | 0.05 | 73 | 1005.9 |
| 20260505183825 | 56 | 354 | 9.0 | 17.0 | 0.00 | 0.00 | 0.05 | 72 | 1005.9 |
| 20260505183144 | 56 | 355 | 9.0 | 20.0 | 0.00 | 0.00 | 0.05 | 71 | 1005.7 |
| 20260505182509 | 57 | 354 | 10.0 | 22.0 | 0.00 | 0.00 | 0.05 | 70 | 1005.6 |
| 20260505181825 | 0 | 356 | 12.0 | 9.0 | 0.00 | 0.00 | 0.05 | ||
| 20260505180917 | 56 | 356 | 9.0 | 14.0 | 0.00 | 0.00 | 0.05 | 71 | 1005.5 |
| 20260505180238 | 0 | 355 | 8.0 | 10.0 | 0.00 | 0.00 | 0.05 | ||
| 20260505175446 | 56 | 354 | 8.0 | 15.0 | 0.00 | 0.00 | 0.05 | 71 | 1005.2 |
| 20260505174805 | 56 | 352 | 9.0 | 15.0 | 0.00 | 0.00 | 0.05 | 70 | 1005.2 |
| 20260505174130 | 56 | 355 | 8.0 | 14.0 | 0.00 | 0.00 | 0.05 | 69 | 1005.1 |
| 20260505173445 | 55 | 356 | 8.0 | 14.0 | 0.00 | 0.00 | 0.05 | 70 | 1005.2 |
| 20260505172806 | 0 | 356 | 8.0 | 10.0 | 0.00 | 0.00 | 0.05 | ||
| 20260505172017 | 0 | 355 | 7.0 | 10.0 | 0.00 | 0.00 | 0.05 | ||
| 20260505171114 | 54 | 355 | 7.0 | 12.0 | 0.00 | 0.00 | 0.05 | 72 | 1005.4 |
| 20260505170435 | 0 | 356 | 7.0 | 10.0 | 0.00 | 0.00 | 0.05 | ||
| 20260505165647 | 54 | 353 | 7.0 | 16.0 | 0.00 | 0.00 | 0.05 | 71 | 1005.1 |
| 20260505165007 | 54 | 355 | 9.0 | 16.0 | 0.00 | 0.00 | 0.05 | 69 | 1005.0 |
| 20260505164328 | 55 | 355 | 10.0 | 16.0 | 0.00 | 0.00 | 0.05 | 69 | 1005.0 |
| 20260505163646 | 56 | 354 | 9.0 | 22.0 | 0.00 | 0.00 | 0.05 | 66 | 1004.8 |
| 20260505163009 | 58 | 356 | 11.0 | 22.0 | 0.00 | 0.00 | 0.05 | 64 | 1004.5 |
| 20260505162326 | 56 | 355 | 11.0 | 19.0 | 0.00 | 0.00 | 0.05 | 68 | 1004.3 |
| 20260505161646 | 55 | 354 | 13.0 | 19.0 | 0.00 | 0.00 | 0.05 | 70 | 1004.4 |
| 20260505161008 | 54 | 354 | 11.0 | 16.0 | 0.00 | 0.00 | 0.05 | 72 | 1004.8 |
| 20260505160327 | 0 | 352 | 10.0 | 8.0 | 0.00 | 0.00 | 0.05 | ||
| 20260505152741 | 54 | 357 | 6.0 | 12.0 | 0.00 | 0.00 | 0.05 | 72 | 1004.5 |
| 20260505152101 | 53 | 355 | 8.0 | 12.0 | 0.00 | 0.00 | 0.05 | 74 | 1004.0 |
| 20260505151421 | 54 | 354 | 7.0 | 14.0 | 0.00 | 0.00 | 0.05 | 71 | 1003.8 |
| 20260505150741 | 54 | 356 | 8.0 | 14.0 | 0.00 | 0.00 | 0.05 | 69 | 1003.7 |
| 20260505140457 | 60 | 355 | 10.0 | 17.0 | 0.00 | 0.00 | 0.05 | 61 | 1003.1 |
| 20260505124614 | 0 | 354 | 14.0 | 18.0 | 0.00 | 0.00 | 0.05 | ||
| 20260505123823 | 68 | 353 | 15.0 | 25.0 | 0.00 | 0.00 | 0.05 | 46 | 1001.8 |
| 20260505123143 | 69 | 357 | 13.0 | 26.0 | 0.00 | 0.00 | 0.05 | 46 | 1001.7 |
| 20260505122503 | 68 | 355 | 13.0 | 24.0 | 0.00 | 0.00 | 0.05 | 47 | 1001.7 |
| 20260505121822 | 68 | 352 | 12.0 | 23.0 | 0.00 | 0.00 | 0.05 | 47 | 1001.7 |
| 20260505121143 | 0 | 355 | 9.0 | 11.0 | 0.00 | 0.00 | 0.05 | ||
| 20260505120321 | 68 | 354 | 15.0 | 24.0 | 0.00 | 0.00 | 0.05 | 47 | 1001.7 |
| 20260505115641 | 67 | 356 | 15.0 | 24.0 | 0.00 | 0.00 | 0.05 | 48 | 1001.6 |
| 20260505115000 | 67 | 356 | 15.0 | 25.0 | 0.00 | 0.00 | 0.05 | 47 | 1001.5 |
| 20260505114321 | 0 | 353 | 15.0 | 17.0 | 0.00 | 0.00 | 0.05 | ||
| 20260505113532 | 67 | 355 | 14.0 | 23.0 | 0.00 | 0.00 | 0.05 | 47 | 1001.4 |
| 20260505112853 | 0 | 356 | 13.0 | 16.0 | 0.00 | 0.00 | 0.05 | ||
| 20260505112104 | 67 | 354 | 14.0 | 26.0 | 0.00 | 0.00 | 0.05 | 48 | 1001.4 |
| 20260505111426 | 67 | 354 | 17.0 | 31.0 | 0.00 | 0.00 | 0.05 | 47 | 1001.2 |
| 20260505110746 | 67 | 356 | 12.0 | 26.0 | 0.00 | 0.00 | 0.05 | 48 | 1001.1 |
| 20260505110106 | 0 | 355 | 14.0 | 18.0 | 0.00 | 0.00 | 0.05 | ||
| 20260505101738 | 65 | 358 | 14.0 | 24.0 | 0.00 | 0.00 | 0.05 | 54 | 1000.5 |
| 20260505101059 | 0 | 357 | 13.0 | 17.0 | 0.00 | 0.00 | 0.05 | ||
| 20260505100017 | 64 | 354 | 13.0 | 26.0 | 0.00 | 0.00 | 0.05 | 55 | 1000.3 |
| 20260505095337 | 0 | 355 | 18.0 | 16.0 | 0.00 | 0.00 | 0.05 | ||
| 20260505094549 | 64 | 356 | 16.0 | 25.0 | 0.00 | 0.00 | 0.05 | 55 | 1000.2 |
| 20260505093905 | 64 | 351 | 15.0 | 27.0 | 0.00 | 0.00 | 0.05 | 56 | 1000.2 |
| 20260505093224 | 64 | 355 | 12.0 | 24.0 | 0.00 | 0.00 | 0.05 | 56 | 1000.3 |
| 20260505092544 | 64 | 355 | 15.0 | 22.0 | 0.00 | 0.00 | 0.05 | 56 | 1000.2 |
| 20260505091905 | 64 | 353 | 14.0 | 21.0 | 0.00 | 0.00 | 0.05 | 56 | 1000.2 |
| 20260505091224 | 0 | 355 | 12.0 | 11.0 | 0.00 | 0.00 | 0.05 | ||
| 20260505090320 | 63 | 357 | 10.0 | 16.0 | 0.00 | 0.00 | 0.05 | 60 | 1000.1 |
| 20260505085641 | 0 | 356 | 8.0 | 5.0 | 0.00 | 0.00 | 0.05 | ||
| 20260505084853 | 0 | 355 | 8.0 | 9.0 | 0.00 | 0.00 | 0.05 | ||
| 20260505084102 | 63 | 355 | 10.0 | 19.0 | 0.00 | 0.00 | 0.05 | 60 | 1000.2 |
| 20260505083423 | 0 | 354 | 10.0 | 10.0 | 0.00 | 0.00 | 0.05 | ||
| 20260505082634 | 0 | 357 | 9.0 | 10.0 | 0.00 | 0.00 | 0.05 | ||
| 20260505081729 | 0 | 355 | 10.0 | 10.0 | 0.00 | 0.00 | 0.05 | ||
| 20260505080942 | 64 | 355 | 10.0 | 21.0 | 0.00 | 0.00 | 0.05 | 54 | 1000.4 |
| 20260505080301 | 64 | 354 | 12.0 | 21.0 | 0.00 | 0.00 | 0.05 | 58 | 1000.5 |
| 20260505075621 | 62 | 354 | 10.0 | 16.0 | 0.00 | 0.00 | 0.05 | 61 | 1000.6 |
| 20260505074942 | 61 | 357 | 6.0 | 10.0 | 0.00 | 0.00 | 0.05 | 66 | 1000.7 |
| 20260505074302 | 60 | 356 | 2.0 | 9.0 | 0.00 | 0.00 | 0.05 | 71 | 1000.7 |
| 20260505073621 | 57 | 357 | 0.0 | 5.0 | 0.00 | 0.00 | 0.05 | 77 | 1000.7 |
| 20260505072942 | 0 | 355 | 1.0 | 2.0 | 0.00 | 0.00 | 0.05 | ||
| 20260505072151 | 56 | 357 | 0.0 | 0.0 | 0.00 | 0.00 | 0.05 | 84 | 1000.8 |
| 20260505071510 | 56 | 355 | 0.0 | 0.0 | 0.00 | 0.00 | 0.05 | 84 | 1001.0 |
| 20260505070831 | 0 | 357 | 0.0 | 0.0 | 0.00 | 0.00 | 0.05 | ||
| 20260505070042 | 55 | 357 | 0.0 | 2.0 | 0.00 | 0.00 | 0.05 | 82 | 1001.5 |
| 20260505065402 | 56 | 357 | 0.0 | 0.0 | 0.00 | 0.00 | 0.05 | 82 | 1001.6 |
| 20260505064723 | 56 | 357 | 0.0 | 0.0 | 0.00 | 0.00 | 0.05 | 80 | 1001.5 |
| 20260505064043 | 56 | 357 | 0.0 | 5.0 | 0.00 | 0.00 | 0.05 | 77 | 1001.8 |
| 20260505063403 | 0 | 357 | 0.0 | 7.0 | 0.00 | 0.00 | 0.05 | ||
| 20260505062614 | 0 | 356 | 4.0 | 2.0 | 0.00 | 0.00 | 0.05 | ||
| 20260505061824 | 56 | 356 | 5.0 | 10.0 | 0.00 | 0.00 | 0.05 | 80 | 1001.7 |
| 20260505061143 | 56 | 358 | 6.0 | 10.0 | 0.00 | 0.00 | 0.05 | 78 | 1002.2 |
| 20260505060505 | 0 | 355 | 7.0 | 7.0 | 0.00 | 0.00 | 0.05 | ||
| 20260505055711 | 56 | 354 | 9.0 | 13.0 | 0.00 | 0.00 | 0.05 | 79 | 1002.3 |
| 20260505055032 | 0 | 355 | 9.0 | 6.0 | 0.00 | 0.00 | 0.05 | ||
| 20260505054241 | 54 | 357 | 6.0 | 16.0 | 0.00 | 0.00 | 0.05 | 84 | 1003.0 |
| 20260505053601 | 54 | 356 | 7.0 | 19.0 | 0.00 | 0.00 | 0.05 | 85 | 1003.3 |
| 20260505052922 | 56 | 356 | 11.0 | 20.0 | 0.00 | 0.00 | 0.03 | 82 | 1003.3 |
| 20260505052242 | 0 | 355 | 14.0 | 10.0 | 0.00 | 0.00 | 0.01 | ||
| 20260505051454 | 0 | 355 | 13.0 | 11.0 | 0.00 | 0.00 | 0.00 | ||
| 20260505050703 | 61 | 356 | 14.0 | 24.0 | 0.00 | 0.00 | 0.00 | 64 | 1002.3 |
| 20260505041539 | 64 | 354 | 13.0 | 23.0 | 0.00 | 0.00 | 0.00 | 56 | 1002.2 |
| 20260505040859 | 0 | 355 | 14.0 | 8.0 | 0.00 | 0.00 | 0.00 | ||
| 20260505040108 | 63 | 355 | 11.0 | 22.0 | 0.00 | 0.00 | 0.00 | 60 | 1001.8 |
| 20260505035429 | 0 | 357 | 9.0 | 12.0 | 0.00 | 0.00 | 0.00 | ||
| 20260505034640 | 65 | 356 | 13.0 | 22.0 | 0.00 | 0.00 | 0.00 | 53 | 1002.5 |
| 20260505034000 | 64 | 354 | 12.0 | 22.0 | 0.00 | 0.00 | 0.00 | 55 | 1001.8 |
| 20260505033213 | 64 | 350 | 10.0 | 18.0 | 0.00 | 0.00 | 0.00 | 55 | 1001.6 |
| 20260505032534 | 64 | 355 | 9.0 | 19.0 | 0.00 | 0.00 | 0.00 | 55 | 1001.7 |
| 20260505031852 | 63 | 358 | 8.0 | 15.0 | 0.00 | 0.00 | 0.00 | 57 | 1001.8 |
| 20260505031212 | 63 | 355 | 7.0 | 14.0 | 0.00 | 0.00 | 0.00 | 57 | 1001.9 |
| 20260505030533 | 0 | 355 | 6.0 | 6.0 | 0.00 | 0.00 | 0.00 | ||
| 20260505025637 | 64 | 356 | 10.0 | 17.0 | 0.00 | 0.00 | 0.00 | 54 | 1002.2 |
| 20260505024958 | 0 | 356 | 12.0 | 10.0 | 0.00 | 0.00 | 0.00 | ||
| 20260505024058 | 0 | 351 | 11.0 | 18.0 | 0.00 | 0.00 | 0.00 | ||
| 20260505023306 | 66 | 355 | 8.0 | 16.0 | 0.00 | 0.00 | 0.00 | 44 | 1002.3 |
| 20260505022626 | 67 | 356 | 11.0 | 17.0 | 0.00 | 0.00 | 0.00 | 43 | 1002.2 |
| 20260505021946 | 67 | 355 | 10.0 | 15.0 | 0.00 | 0.00 | 0.00 | 43 | 1002.5 |
| 20260505021307 | 0 | 356 | 10.0 | 8.0 | 0.00 | 0.00 | 0.00 | ||
| 20260505020404 | 68 | 354 | 11.0 | 27.0 | 0.00 | 0.00 | 0.00 | 40 | 1002.6 |
| 20260505015724 | 68 | 356 | 18.0 | 27.0 | 0.00 | 0.00 | 0.00 | 37 | 1002.6 |
| 20260505015045 | 0 | 354 | 15.0 | 19.0 | 0.00 | 0.00 | 0.00 | ||
| 20260505014254 | 65 | 356 | 5.0 | 9.0 | 0.00 | 0.00 | 0.00 | 36 | 1001.9 |
| 20260505013615 | 0 | 357 | 4.0 | 4.0 | 0.00 | 0.00 | 0.00 | ||
| 20260505012825 | 0 | 351 | 2.0 | 2.0 | 0.00 | 0.00 | 0.00 | ||
| 20260505012033 | 64 | 353 | 2.0 | 6.0 | 0.00 | 0.00 | 0.00 | 35 | 1001.9 |
| 20260505011358 | 64 | 358 | 0.0 | 5.0 | 0.00 | 0.00 | 0.00 | 35 | 1001.9 |
| 20260505010713 | 0 | 355 | 3.0 | 4.0 | 0.00 | 0.00 | 0.00 | ||
| 20260505005815 | 64 | 355 | 4.0 | 8.0 | 0.00 | 0.00 | 0.00 | 35 | 1002.1 |
| 20260505005135 | 0 | 353 | 0.0 | 5.0 | 0.00 | 0.00 | 0.00 | ||
| 20260505004124 | 64 | 356 | 1.0 | 4.0 | 0.00 | 0.00 | 0.00 | 35 | 1002.0 |
| 20260505003445 | 64 | 356 | 0.0 | 6.0 | 0.00 | 0.00 | 0.00 | 36 | 1002.0 |
| 20260505002805 | 64 | 355 | 2.0 | 6.0 | 0.00 | 0.00 | 0.00 | 36 | 1002.1 |
| 20260505002125 | 62 | 356 | 0.0 | 9.0 | 0.00 | 0.00 | 0.00 | 40 | 1002.0 |
| 20260505001446 | 0 | 358 | 6.0 | 4.0 | 0.00 | 0.00 | 0.00 | ||
| 20260505000549 | 60 | 356 | 5.0 | 10.0 | 0.00 | 0.00 | 0.00 | 44 | 1002.2 |
| 20260504235909 | 62 | 355 | 6.0 | 10.0 | 0.00 | 0.00 | 0.00 | 39 | 1002.2 |
| 20260504235229 | 62 | 356 | 6.0 | 11.0 | 0.00 | 0.00 | 0.00 | 40 | 1002.3 |
| 20260504234550 | 61 | 354 | 8.0 | 11.0 | 0.00 | 0.00 | 0.00 | 42 | 1002.4 |
| 20260504233909 | 60 | 355 | 5.0 | 10.0 | 0.00 | 0.00 | 0.00 | 46 | 1002.5 |
| 20260504233230 | 61 | 0 | 7.0 | 7.0 | 0.00 | 0.00 | 0.00 | 43 | 1002.4 |
| 20260504232439 | 63 | 354 | 8.0 | 11.0 | 0.00 | 0.00 | 0.00 | 38 | 1002.4 |
| 20260504231800 | 61 | 356 | 8.0 | 11.0 | 0.00 | 0.00 | 0.00 | 41 | 1002.4 |
| 20260504231119 | 62 | 355 | 8.0 | 12.0 | 0.00 | 0.00 | 0.00 | 40 | 1002.4 |
| 20260504230441 | 63 | 356 | 6.0 | 11.0 | 0.00 | 0.00 | 0.00 | 42 | 1002.5 |
| 20260504225800 | 63 | 357 | 7.0 | 11.0 | 0.00 | 0.00 | 0.00 | 43 | 1002.4 |
| 20260504225119 | 61 | 357 | 8.0 | 11.0 | 0.00 | 0.00 | 0.00 | 46 | 1002.5 |
| 20260504224439 | 62 | 355 | 7.0 | 11.0 | 0.00 | 0.00 | 0.00 | 44 | 1002.5 |
| 20260504223800 | 60 | 356 | 5.0 | 5.0 | 0.00 | 0.00 | 0.00 | 49 | 1002.6 |
| 20260504223010 | 61 | 356 | 4.0 | 11.0 | 0.00 | 0.00 | 0.00 | 48 | 1002.5 |
| 20260504222332 | 62 | 358 | 7.0 | 11.0 | 0.00 | 0.00 | 0.00 | 44 | 1002.3 |
| 20260504221652 | 62 | 356 | 8.0 | 11.0 | 0.00 | 0.00 | 0.00 | 45 | 1002.3 |
| 20260504221012 | 0 | 353 | 8.0 | 8.0 | 0.00 | 0.00 | 0.00 | ||
| 20260504220223 | 0 | 354 | 4.0 | 6.0 | 0.00 | 0.00 | 0.00 |